Flag Weather past 2 weeks in Des Moines, Iowa, U.S.A.

Now
55 °F

Overcast.


Feels Like: 51 °F
Forecast: 36 / 54 °F
Wind: 15 mph from Southwest

Location: Des Moines International Airport

Current Time: Nov 23, 2014 at 1:39:52 AM

Latest Report: Nov 23, 2014 at 12:54 AM


Visibility: 10 mi

Pressure: 29.62 "Hg

Humidity: 83%

Dew point: 50 °F

Location of Des MoinesLocation

Historic Weather in Des Moines — Graph

°F

Des Moines temperature yesterday

Maximum temperature yesterday: 57 °F (at 7:54 PM)
Minimum temperature yesterday: 39 °F (at 12:54 AM)
Average temperature yesterday: 48 °F

Past Weeks' High & Low Weather Summary

 TemperatureHumidityPressure
High65 °F (Nov 10, 12:54 PM)97% (Nov 22, 6:54 AM)30.52 "Hg (Nov 22, 6:54 AM)
Low8 °F (Nov 18, 1:54 AM)31% (Nov 14, 2:54 PM)29.37 "Hg (Nov 10, 12:54 PM)
Average29 °F65%30.13 "Hg
* Reported Nov 7 11:54 PM — Nov 22 11:54 PM, Des Moines, Weather by CustomWeather, © 2014

Note: Actual official high and low records may vary slightly from our data, if they occured in-between our weather recording intervals... More about our weather records

Advertising

Des Moines weather history for previous 24 hours

 ConditionsComfort  
Time TempWeatherWind HumidityBarometerVisibility
11:54 PM
Nov 22
55 °FOvercast.13 mph80%29.65 "Hg10 mi
10:54 PM55 °FOvercast.22 mph80%29.65 "Hg10 mi
9:54 PM54 °FMostly cloudy.15 mph83%29.67 "Hg10 mi
8:54 PM54 °FPassing clouds.14 mph86%29.67 "Hg10 mi
7:54 PM57 °FMostly cloudy.16 mph83%29.68 "Hg9 mi
6:54 PM56 °FLow clouds.15 mph87%29.69 "Hg7 mi
5:54 PM52 °FFog.9 mph93%29.71 "Hg2 mi
4:54 PM51 °FDrizzle. Fog.10 mph92%29.73 "Hg1 mi
3:54 PM53 °FFog.12 mph86%29.74 "Hg6 mi
2:54 PM55 °FMostly cloudy.16 mph74%29.75 "Hg8 mi
1:54 PM56 °FPassing clouds.15 mph65%29.77 "Hg9 mi
12:54 PM55 °FScattered clouds.18 mph67%29.79 "Hg10 mi
11:54 AM49 °FMostly cloudy.14 mph80%29.82 "Hg8 mi
10:54 AM47 °FMostly cloudy.17 mph80%29.87 "Hg8 mi
9:54 AM45 °FFog.15 mph86%29.89 "Hg4 mi
8:58 AM43 °FFog.13 mph89%29.88 "Hg3 mi
7:54 AM41 °FFog.9 mph93%29.92 "Hg2 mi
6:54 AM40 °FDrizzle. Fog.8 mph97%29.92 "Hg1 mi
5:54 AM39 °FDrizzle. Fog.10 mph96%29.93 "Hg1 mi
4:54 AM39 °FDrizzle. Fog.8 mph93%29.95 "Hg1 mi
3:54 AM39 °FFog.9 mph89%29.96 "Hg2 mi
2:54 AM40 °FFog.12 mph86%29.98 "Hg5 mi
1:54 AM40 °FLow clouds.13 mph77%30.00 "Hg8 mi
Weather by CustomWeather, © 2014

See weather overviewHow to use our weather pages